Fort Sill, OK

9:16 PM CDT on March 28, 2017 (GMT -0500)
Post Army Air Field

Weather History for KFSI - September, 2014

Change the Weather History Date:

Tuesday, September 2, 2014

  Actual Average Record
Temperature  
Mean Temperature 88 °F -  
Max Temperature 99 °F 91 °F 109 °F (1951)
Min Temperature 78 °F 67 °F 55 °F (1952)
Cooling Degree Days 23    
Growing Degree Days 38 (Base 50)    
Moisture  
Dew Point 68 °F    
Average Humidity 54    
Maximum Humidity 74    
Minimum Humidity 34    
Precipitation  
Precipitation 0.00 in - - ()
Sea Level Pressure  
Sea Level Pressure 29.85 in    
Wind  
Wind Speed 11 mph (SSE)    
Max Wind Speed 22 mph    
Max Gust Speed 32 mph    
Visibility 10 miles    
Events      
Averages and records for this station are not official NWS values.
T = Trace of Precipitation, MM = Missing Value Source: NWS Daily Summary

Daily Weather History Graph

Daily Weather History Graph

Search for Another Location

Airport or City:

Trip Planner

Search our weather history database for the weather conditions in past years. The results will help you decide how hot, cold, wet, or windy it might be!

Date:

Astronomy

Sep. 02, 2014 Rise Set
Actual Time 7:07 AM CDT 7:58 PM CDT
Civil Twilight 6:41 AM CDT 8:24 PM CDT
Nautical Twilight 6:11 AM CDT 8:54 PM CDT
Astronomical Twilight 5:40 AM CDT 9:25 PM CDT
Moon 2:35 PM CDT (9/2) 12:19 AM CDT (9/2)
Length of Visible Light 13h 42m
Length of Day
12h 51m
First Quarter, 53% of the Moon is Illuminated
Sep 2
First Quarter
Sep 8
Full
Sep 15
Last Quarter
Sep 24
New
Oct 1
First Quarter

Hourly Weather History & Observations

Time (CDT) Temp. Heat Index Dew Point Humidity Pressure Visibility Wind Dir Wind Speed Gust Speed Precip Events Conditions
12:58 AM 83.7 °F 86.5 °F 67.3 °F 58% 29.79 in 10.0 mi South 11.5 mph - N/A   Clear
1:58 AM 82.0 °F 84.5 °F 67.1 °F 60% 29.80 in 10.0 mi SE 3.5 mph - N/A   Mostly Cloudy
2:58 AM 80.6 °F 83.2 °F 67.6 °F 65% 29.80 in 10.0 mi South 9.2 mph - N/A   Mostly Cloudy
3:58 AM 81.1 °F 83.7 °F 67.6 °F 63% 29.78 in 10.0 mi South 10.4 mph - N/A   Partly Cloudy
4:58 AM 79.9 °F - 68.4 °F 68% 29.78 in 10.0 mi South 10.4 mph - N/A   Clear
5:58 AM 79.3 °F - 68.7 °F 70% 29.79 in 10.0 mi South 11.5 mph - N/A   Clear
6:58 AM 78.3 °F - 69.1 °F 73% 29.83 in 10.0 mi South 10.4 mph - N/A   Clear
7:58 AM 78.4 °F - 69.6 °F 74% 29.86 in 10.0 mi SSE 9.2 mph - N/A   Clear
8:58 AM 82.0 °F 85.9 °F 70.0 °F 67% 29.91 in 10.0 mi Variable 3.5 mph - N/A   Clear
9:58 AM 84.4 °F 88.7 °F 70.2 °F 62% 29.92 in 10.0 mi South 6.9 mph - N/A   Partly Cloudy
10:58 AM 88.0 °F 93.4 °F 70.7 °F 56% 29.91 in 10.0 mi SSE 11.5 mph - N/A   Clear
11:58 AM 90.0 °F 95.4 °F 70.3 °F 52% 29.91 in 10.0 mi SSE 12.7 mph 18.4 mph N/A   Clear
12:45 PM 93.2 °F 98.8 °F 69.8 °F 46% 29.95 in 10.0 mi South 17.3 mph 23.0 mph N/A   Scattered Clouds
12:58 PM 91.9 °F 97.4 °F 70.0 °F 48% 29.91 in 10.0 mi South 10.4 mph - N/A   Scattered Clouds
1:58 PM 95.7 °F 102.1 °F 69.6 °F 43% 29.88 in 10.0 mi South 18.4 mph 24.2 mph N/A   Clear
2:58 PM 98.1 °F 103.0 °F 67.5 °F 37% 29.86 in 10.0 mi South 16.1 mph 32.2 mph N/A   Partly Cloudy
3:58 PM 98.2 °F 101.6 °F 65.5 °F 34% 29.82 in 10.0 mi SSE 21.9 mph 29.9 mph N/A   Partly Cloudy
4:58 PM 97.9 °F 100.9 °F 65.3 °F 34% 29.81 in 10.0 mi South 18.4 mph 25.3 mph N/A   Partly Cloudy
5:58 PM 96.6 °F 98.7 °F 64.4 °F 34% 29.81 in 10.0 mi South 18.4 mph 24.2 mph N/A   Clear
6:58 PM 94.6 °F 96.8 °F 64.6 °F 37% 29.81 in 10.0 mi South 20.7 mph 25.3 mph N/A   Partly Cloudy
7:58 PM 90.9 °F 94.0 °F 66.6 °F 45% 29.82 in 10.0 mi SSE 19.6 mph 25.3 mph N/A   Clear
8:58 PM 88.2 °F 91.3 °F 67.6 °F 50% 29.84 in 10.0 mi SSE 13.8 mph - N/A   Clear
9:58 PM 86.0 °F 89.1 °F 67.5 °F 54% 29.86 in 10.0 mi SSE 10.4 mph - N/A   Clear
10:58 PM 83.7 °F 86.5 °F 67.3 °F 58% 29.87 in 10.0 mi SSE 8.1 mph - N/A   Clear
11:58 PM 82.6 °F 85.3 °F 67.6 °F 60% 29.86 in 10.0 mi SSE 10.4 mph - N/A   Clear